Hermiston, OR

12:04 PM PST on November 18, 2017 (GMT -0800)
Hermiston Municipal

Weather History for KHRI - February, 2013

Change the Weather History Date:

Saturday, February 16, 2013

  Actual Average Record
Temperature  
Mean Temperature 40 °F 38 °F  
Max Temperature 55 °F 48 °F 69 °F (1982)
Min Temperature 24 °F 27 °F -5 °F (1936)
Degree Days  
Heating Degree Days 26    
Moisture  
Dew Point 30 °F    
Average Humidity 77    
Maximum Humidity 100    
Minimum Humidity 42    
Precipitation  
Precipitation 0.00 in 0.03 in 0.43 in (1952)
Month to date precipitation 0.63  
Year to date precipitation 1.97  
Sea Level Pressure  
Sea Level Pressure 30.15 in    
Wind  
Wind Speed 6 mph (SW)    
Max Wind Speed 25 mph    
Max Gust Speed 33 mph    
Visibility 7 miles    
Events      
T = Trace of Precipitation, MM = Missing Value Source: NWS Daily Summary

Daily Weather History Graph

Daily Weather History Graph

Search for Another Location

Airport or City:

Trip Planner

Search our weather history database for the weather conditions in past years. The results will help you decide how hot, cold, wet, or windy it might be!

Date:

Astronomy

Feb. 16, 2013 Rise Set
Actual Time 6:57 AM PST 5:25 PM PST
Civil Twilight 6:26 AM PST 5:56 PM PST
Nautical Twilight 5:51 AM PST 6:31 PM PST
Astronomical Twilight 5:17 AM PST 7:05 PM PST
Moon 9:50 AM PST (2/16) No Moon Set
Length of Visible Light 11h 29m
Length of Day
10h 28m
Waxing Crescent, 40% of the Moon is Illuminated
Feb 16
Waxing Crescent
Feb 17
First Quarter
Feb 25
Full
Mar 4
Last Quarter
Mar 11
New

Hourly Weather History & Observations

Time (PST) Temp. Windchill Dew Point Humidity Pressure Visibility Wind Dir Wind Speed Gust Speed Precip Events Conditions
12:53 AM 28.0 °F 22.8 °F 27.0 °F 96% 30.26 in 7.0 mi SSE 4.6 mph - N/A   Clear
1:53 AM 28.0 °F - 27.0 °F 96% 30.24 in 4.0 mi Calm Calm - N/A   Clear
1:57 AM 28.4 °F - 26.6 °F 93% 30.23 in 1.8 mi Calm Calm - N/A   Clear
2:08 AM 26.6 °F - 26.6 °F 100% 30.22 in 3.0 mi Calm Calm - N/A   Clear
2:19 AM 26.6 °F - 24.8 °F 93% 30.22 in 1.5 mi Calm Calm - N/A   Clear
2:53 AM 28.9 °F - 28.0 °F 96% 30.23 in 8.0 mi Calm Calm - N/A   Clear
3:22 AM 24.8 °F 19.1 °F 24.8 °F 100% 30.20 in 2.5 mi SSE 4.6 mph - N/A   Clear
3:29 AM 24.8 °F 20.5 °F 24.8 °F 100% 30.20 in 5.0 mi South 3.5 mph - N/A   Clear
3:53 AM 30.0 °F 24.1 °F 28.0 °F 92% 30.20 in 7.0 mi South 5.8 mph - N/A   Clear
4:53 AM 28.0 °F 22.8 °F 26.1 °F 92% 30.20 in 5.0 mi SSE 4.6 mph - N/A   Clear
5:53 AM 27.0 °F 19.5 °F 26.1 °F 96% 30.19 in 6.0 mi South 6.9 mph - N/A   Clear
6:53 AM 26.1 °F - 25.0 °F 96% 30.18 in 4.0 mi Calm Calm - N/A   Clear
7:01 AM 24.8 °F - 23.0 °F 93% 30.16 in 2.0 mi Calm Calm - N/A   Clear
7:11 AM 24.8 °F - 23.0 °F 93% 30.16 in 4.0 mi Calm Calm - N/A   Clear
7:53 AM 30.0 °F - 27.0 °F 88% 30.19 in 6.0 mi Calm Calm - N/A   Clear
8:53 AM 37.9 °F 34.4 °F 34.0 °F 86% 30.18 in 10.0 mi South 4.6 mph - N/A   Clear
9:53 AM 44.1 °F - 36.0 °F 73% 30.16 in 10.0 mi Calm Calm - N/A   Clear
10:53 AM 51.1 °F - 39.0 °F 63% 30.14 in 10.0 mi SSW 5.8 mph - N/A   Clear
11:53 AM 54.0 °F - 39.0 °F 57% 30.12 in 10.0 mi WSW 13.8 mph 20.7 mph N/A   Mostly Cloudy
12:53 PM 55.0 °F - 37.9 °F 53% 30.09 in 10.0 mi WSW 21.9 mph 29.9 mph N/A   Mostly Cloudy
1:53 PM 54.0 °F - 35.1 °F 49% 30.07 in 10.0 mi West 23.0 mph 29.9 mph 0.00 in   Overcast
2:53 PM 55.9 °F - 36.0 °F 47% 30.05 in 10.0 mi WSW 19.6 mph 24.2 mph N/A   Mostly Cloudy
3:53 PM 55.0 °F - 32.0 °F 42% 30.05 in 10.0 mi WSW 25.3 mph 33.4 mph N/A   Clear
4:53 PM 52.0 °F - 33.1 °F 49% 30.06 in 10.0 mi WSW 23.0 mph 32.2 mph N/A   Clear
5:53 PM 48.0 °F - 33.1 °F 56% 30.07 in 10.0 mi West 16.1 mph - N/A   Clear
6:53 PM 45.0 °F 37.1 °F 33.1 °F 63% 30.08 in 10.0 mi WSW 19.6 mph 27.6 mph N/A   Clear
7:53 PM 44.1 °F 36.5 °F 32.0 °F 63% 30.09 in 10.0 mi WSW 17.3 mph 23.0 mph N/A   Clear
8:53 PM 44.1 °F 36.2 °F 32.0 °F 63% 30.09 in 10.0 mi WSW 18.4 mph 25.3 mph N/A   Clear
9:53 PM 43.0 °F 34.5 °F 32.0 °F 65% 30.10 in 10.0 mi WSW 19.6 mph 27.6 mph N/A   Clear
10:53 PM 41.0 °F 33.5 °F 30.9 °F 67% 30.11 in 10.0 mi SW 13.8 mph 20.7 mph N/A   Clear
11:53 PM 41.0 °F 33.5 °F 28.9 °F 62% 30.11 in 10.0 mi WSW 13.8 mph 23.0 mph N/A   Clear